Hourly Weather Kiszewko

Today, 28 October, Wednesday

Time Temperature Precipitation Wind Pressure Humidity
00:00 +7°C° 0 mm 4 mps 754 mmHg 79%
01:00 +7°C° 0 mm 4 mps 754 mmHg 79%
02:00 +7°C° 0 mm 4 mps 754 mmHg 79%
03:00 +7°C° 0 mm 4 mps 753 mmHg 79%
04:00 +6°C° 0 mm 4 mps 753 mmHg 79%
05:00 +7°C° 0 mm 4 mps 753 mmHg 78%
06:00 +7°C° 0 mm 5 mps 753 mmHg 76%
07:00 +7°C° 0 mm 5 mps 753 mmHg 74%
08:00 +8°C° 0 mm 5 mps 754 mmHg 70%
09:00 +9°C° 0 mm 5 mps 754 mmHg 66%
10:00 +10°C° 0 mm 6 mps 754 mmHg 62%
11:00 +10°C° 0 mm 5 mps 754 mmHg 65%
12:00 +9°C° 0 mm 5 mps 753 mmHg 68%
13:00 +10°C° 0 mm 4 mps 753 mmHg 72%
14:00 +10°C° 0 mm 4 mps 753 mmHg 73%
15:00 +10°C° 0 mm 4 mps 754 mmHg 75%
16:00 +10°C° 0 mm 4 mps 754 mmHg 77%
17:00 +10°C° 0 mm 4 mps 754 mmHg 77%
18:00 +10°C° 0 mm 4 mps 754 mmHg 77%
19:00 +10°C° 0 mm 4 mps 754 mmHg 78%
20:00 +8°C° 0 mm 4 mps 754 mmHg 81%
21:00 +8°C° 0 mm 4 mps 754 mmHg 84%
22:00 +8°C° 0 mm 4 mps 754 mmHg 88%
23:00 +8°C° 0 mm 4 mps 754 mmHg 88%

Tomorrow, 29 October, Thursday

Time Temperature Precipitation Wind Pressure Humidity
00:00 +8°C° 0 mm 4 mps 754 mmHg 88%
01:00 +8°C° 0 mm 4 mps 754 mmHg 88%
02:00 +8°C° 0 mm 4 mps 754 mmHg 86%
03:00 +8°C° 0 mm 4 mps 754 mmHg 85%
04:00 +8°C° 0 mm 4 mps 753 mmHg 83%
05:00 +8°C° 0.1 mm 4 mps 753 mmHg 84%
06:00 +8°C° 0.1 mm 4 mps 753 mmHg 84%
07:00 +8°C° 0.1 mm 5 mps 753 mmHg 85%
08:00 +9°C° 0.1 mm 5 mps 753 mmHg 82%
09:00 +10°C° 0.1 mm 6 mps 753 mmHg 79%
10:00 +10°C° 0.1 mm 6 mps 753 mmHg 76%
11:00 +10°C° 0.2 mm 6 mps 753 mmHg 75%
12:00 +10°C° 0.2 mm 5 mps 753 mmHg 73%
13:00 +10°C° 0.2 mm 5 mps 753 mmHg 72%
14:00 +10°C° 0.1 mm 5 mps 754 mmHg 72%
15:00 +10°C° 0.1 mm 4 mps 754 mmHg 72%
16:00 +10°C° 0.1 mm 4 mps 754 mmHg 72%
17:00 +8°C° 0 mm 4 mps 755 mmHg 74%
18:00 +8°C° 0 mm 4 mps 756 mmHg 77%
19:00 +7°C° 0 mm 4 mps 756 mmHg 79%
20:00 +7°C° 0 mm 4 mps 757 mmHg 80%
21:00 +7°C° 0 mm 4 mps 757 mmHg 80%
22:00 +6°C° 0 mm 4 mps 758 mmHg 80%
23:00 +6°C° 0 mm 4 mps 758 mmHg 83%

Day after tomorrow, 30 October, Friday

Time Temperature Precipitation Wind Pressure Humidity
00:00 +6°C° 0 mm 4 mps 758 mmHg 87%
01:00 +5°C° 0 mm 4 mps 758 mmHg 90%
02:00 +5°C° 0 mm 4 mps 758 mmHg 90%
03:00 +5°C° 0 mm 3 mps 758 mmHg 91%
04:00 +5°C° 0 mm 3 mps 759 mmHg 91%
05:00 +5°C° 0 mm 3 mps 758 mmHg 89%
06:00 +5°C° 0 mm 3 mps 758 mmHg 87%
07:00 +5°C° 0 mm 3 mps 758 mmHg 85%
08:00 +6°C° 0.6 mm 4 mps 757 mmHg 88%
09:00 +6°C° 0.6 mm 4 mps 757 mmHg 90%
10:00 +6°C° 0.6 mm 4 mps 757 mmHg 92%
11:00 +7°C° 1.4 mm 4 mps 756 mmHg 93%
12:00 +7°C° 1.4 mm 4 mps 756 mmHg 94%
13:00 +7°C° 1.4 mm 4 mps 756 mmHg 95%
14:00 +8°C° 1.1 mm 4 mps 756 mmHg 96%
15:00 +10°C° 1.1 mm 4 mps 756 mmHg 96%
16:00 +10°C° 1.1 mm 3 mps 756 mmHg 96%
17:00 +11°C° 0.8 mm 3 mps 756 mmHg 96%
18:00 +11°C° 0.8 mm 3 mps 756 mmHg 96%
19:00 +11°C° 0.8 mm 3 mps 757 mmHg 97%
20:00 +10°C° 0.2 mm 3 mps 757 mmHg 96%
21:00 +10°C° 0.2 mm 2 mps 758 mmHg 96%
22:00 +10°C° 0.2 mm 2 mps 758 mmHg 96%
23:00 +9°C° 0.1 mm 2 mps 759 mmHg 95%

31 October, Saturday

Time Temperature Precipitation Wind Pressure Humidity
00:00 +10°C° 0.1 mm 1 mps 759 mmHg 95%
01:00 +10°C° 0.1 mm 1 mps 760 mmHg 94%
02:00 +10°C° 0 mm 1 mps 760 mmHg 94%
03:00 +9°C° 0 mm 1 mps 761 mmHg 94%
04:00 +9°C° 0 mm 1 mps 761 mmHg 94%
05:00 +8°C° 0 mm 2 mps 761 mmHg 93%
06:00 +8°C° 0 mm 2 mps 762 mmHg 92%
07:00 +9°C° 0 mm 2 mps 762 mmHg 91%
08:00 +9°C° 0 mm 2 mps 762 mmHg 90%
09:00 +10°C° 0 mm 2 mps 762 mmHg 88%
10:00 +10°C° 0 mm 2 mps 763 mmHg 86%
11:00 +10°C° 0 mm 2 mps 763 mmHg 85%
12:00 +12°C° 0 mm 2 mps 763 mmHg 85%
13:00 +13°C° 0 mm 2 mps 762 mmHg 84%
14:00 +12°C° 0 mm 2 mps 762 mmHg 85%
15:00 +12°C° 0 mm 2 mps 762 mmHg 87%
16:00 +12°C° 0 mm 2 mps 762 mmHg 88%
17:00 +11°C° 0 mm 3 mps 762 mmHg 90%
18:00 +11°C° 0 mm 3 mps 762 mmHg 91%
19:00 +10°C° 0 mm 3 mps 762 mmHg 93%
20:00 +10°C° 0 mm 3 mps 762 mmHg 92%
21:00 +10°C° 0 mm 3 mps 762 mmHg 92%
22:00 +9°C° 0 mm 3 mps 762 mmHg 91%
23:00 +8°C° 0 mm 4 mps 762 mmHg 89%

1 November, Sunday

Time Temperature Precipitation Wind Pressure Humidity
00:00 +8°C° 0 mm 4 mps 762 mmHg 88%
01:00 +8°C° 0 mm 4 mps 761 mmHg 86%
02:00 +7°C° 0 mm 4 mps 761 mmHg 84%
03:00 +7°C° 0 mm 4 mps 761 mmHg 81%
04:00 +7°C° 0 mm 4 mps 761 mmHg 79%
05:00 +7°C° 0 mm 4 mps 760 mmHg 80%
06:00 +7°C° 0 mm 4 mps 760 mmHg 80%
07:00 +6°C° 0 mm 4 mps 760 mmHg 81%
08:00 +8°C° 0 mm 4 mps 760 mmHg 80%
09:00 +10°C° 0 mm 4 mps 760 mmHg 80%
10:00 +11°C° 0 mm 4 mps 759 mmHg 79%
11:00 +12°C° 0 mm 4 mps 759 mmHg 77%
12:00 +13°C° 0 mm 4 mps 759 mmHg 75%
13:00 +15°C° 0 mm 5 mps 759 mmHg 74%
14:00 +14°C° 0 mm 4 mps 759 mmHg 76%
15:00 +14°C° 0 mm 4 mps 758 mmHg 79%
16:00 +13°C° 0 mm 4 mps 758 mmHg 82%
17:00 +13°C° 0 mm 4 mps 758 mmHg 84%
18:00 +12°C° 0 mm 4 mps 758 mmHg 86%
19:00 +12°C° 0 mm 4 mps 758 mmHg 88%
20:00 +12°C° 0 mm 4 mps 758 mmHg 88%
21:00 +12°C° 0 mm 4 mps 758 mmHg 89%
22:00 +12°C° 0 mm 4 mps 758 mmHg 89%
23:00 +12°C° 0 mm 4 mps 758 mmHg 88%

2 November, Monday

Time Temperature Precipitation Wind Pressure Humidity
00:00 +12°C° 0 mm 4 mps 758 mmHg 86%
01:00 +12°C° 0 mm 4 mps 758 mmHg 85%
02:00 +12°C° 0 mm 4 mps 757 mmHg 84%
03:00 +12°C° 0 mm 4 mps 757 mmHg 84%
04:00 +11°C° 0 mm 4 mps 757 mmHg 84%
05:00 +11°C° 0 mm 4 mps 757 mmHg 83%
06:00 +12°C° 0 mm 4 mps 757 mmHg 82%
07:00 +12°C° 0 mm 4 mps 758 mmHg 80%
08:00 +12°C° 0 mm 4 mps 758 mmHg 79%
09:00 +13°C° 0 mm 4 mps 758 mmHg 77%
10:00 +13°C° 0 mm 4 mps 758 mmHg 75%
11:00 +14°C° 0 mm 4 mps 758 mmHg 74%
12:00 +14°C° 0 mm 4 mps 758 mmHg 73%
13:00 +15°C° 0 mm 4 mps 758 mmHg 72%
14:00 +14°C° 0 mm 4 mps 758 mmHg 73%
15:00 +14°C° 0 mm 3 mps 758 mmHg 74%
16:00 +14°C° 0 mm 3 mps 758 mmHg 75%
17:00 +13°C° 0 mm 3 mps 758 mmHg 77%
18:00 +13°C° 0 mm 3 mps 759 mmHg 78%
19:00 +12°C° 0 mm 3 mps 759 mmHg 80%
20:00 +12°C° 0 mm 3 mps 759 mmHg 80%
21:00 +12°C° 0 mm 3 mps 759 mmHg 81%
22:00 +13°C° 0 mm 2 mps 759 mmHg 81%
23:00 +13°C° 0 mm 2 mps 759 mmHg 79%
Show more